Time,TemperatureF,DewpointF,PressureIn,WindDirection,WindDirectionDegrees,WindSpeedMPH,WindSpeedGustMPH,Humidity,HourlyPrecipIn,Conditions,Clouds,dailyrainin,SolarRadiationWatts/m^2,SoftwareType,DateUTC
2013-08-03 00:22:00,53.0,44.0,-100.00,SE,126,0.0,3.0,72,0.00,,,0.00,0.000000,,2013-08-03 06:22:00,
2013-08-03 00:32:00,53.0,44.0,-100.00,SE,126,0.0,3.0,72,0.00,,,0.00,0.000000,,2013-08-03 06:32:00,
2013-08-03 00:42:00,53.0,44.0,-100.00,SE,126,0.0,3.0,72,0.00,,,0.00,0.000000,,2013-08-03 06:42:00,
2013-08-03 00:52:00,53.0,44.0,-100.00,SE,126,0.0,3.0,72,0.00,,,0.00,0.000000,,2013-08-03 06:52:00,
2013-08-03 01:22:00,52.0,45.0,-100.00,East,95,0.0,6.0,77,0.00,,,0.00,0.000000,,2013-08-03 07:22:00,
2013-08-03 01:32:00,52.0,45.0,-100.00,East,95,0.0,6.0,77,0.00,,,0.00,0.000000,,2013-08-03 07:32:00,
2013-08-03 01:43:00,52.0,45.0,-100.00,East,95,0.0,6.0,77,0.00,,,0.00,0.000000,,2013-08-03 07:43:00,
2013-08-03 01:52:00,52.0,45.0,-100.00,East,95,0.0,6.0,77,0.00,,,0.00,0.000000,,2013-08-03 07:52:00,
2013-08-03 02:43:00,50.0,43.0,-100.00,NNE,21,0.0,0.0,78,0.00,,,0.00,0.000000,,2013-08-03 08:43:00,
2013-08-03 02:52:00,50.0,43.0,-100.00,NNE,21,0.0,0.0,78,0.00,,,0.00,0.000000,,2013-08-03 08:52:00,
2013-08-03 03:43:00,50.0,43.0,-100.00,ENE,69,0.0,3.0,78,0.00,,,0.00,0.000000,,2013-08-03 09:43:00,
2013-08-03 03:53:00,50.0,43.0,-100.00,ENE,69,0.0,3.0,78,0.00,,,0.00,0.000000,,2013-08-03 09:53:00,
2013-08-03 04:22:00,51.0,45.0,-100.00,NNE,26,0.0,0.0,81,0.00,,,0.00,0.000000,,2013-08-03 10:22:00,
2013-08-03 04:32:00,51.0,45.0,-100.00,NNE,26,0.0,0.0,81,0.00,,,0.00,0.000000,,2013-08-03 10:32:00,
2013-08-03 04:42:00,51.0,45.0,-100.00,NNE,26,0.0,0.0,81,0.00,,,0.00,0.000000,,2013-08-03 10:42:00,
2013-08-03 04:53:00,51.0,45.0,-100.00,NNE,26,0.0,0.0,81,0.00,,,0.00,0.000000,,2013-08-03 10:53:00,
2013-08-03 05:43:00,48.0,43.0,-100.00,ESE,110,0.0,0.0,83,0.00,,,-99.99,0.000000,,2013-08-03 11:43:00,
2013-08-03 05:53:00,48.0,43.0,-100.00,ESE,110,0.0,0.0,83,0.00,,,-99.99,0.000000,,2013-08-03 11:53:00,
2013-08-03 06:22:00,48.0,44.0,-100.00,ESE,111,0.0,0.0,87,0.00,,,0.00,0.000000,,2013-08-03 12:22:00,
2013-08-03 06:32:00,48.0,44.0,-100.00,ESE,111,0.0,0.0,87,0.00,,,0.00,0.000000,,2013-08-03 12:32:00,
2013-08-03 06:43:00,48.0,44.0,-100.00,ESE,111,0.0,0.0,87,0.00,,,0.00,0.000000,,2013-08-03 12:43:00,
2013-08-03 06:52:00,48.0,44.0,-100.00,ESE,111,0.0,0.0,87,0.00,,,0.00,0.000000,,2013-08-03 12:52:00,
2013-08-03 07:43:00,48.0,43.0,-100.00,NNE,26,0.0,3.0,82,0.00,,,0.00,6.000000,,2013-08-03 13:43:00,
2013-08-03 07:52:00,48.0,43.0,-100.00,NNE,26,0.0,3.0,82,0.00,,,0.00,6.000000,,2013-08-03 13:52:00,
2013-08-03 08:22:00,48.0,42.0,-100.00,North,8,0.0,0.0,80,0.00,,,0.00,36.000000,,2013-08-03 14:22:00,
2013-08-03 08:32:00,48.0,42.0,-100.00,North,8,0.0,0.0,80,0.00,,,0.00,36.000000,,2013-08-03 14:32:00,
2013-08-03 08:42:00,48.0,42.0,-100.00,North,8,0.0,0.0,80,0.00,,,0.00,36.000000,,2013-08-03 14:42:00,
2013-08-03 08:52:00,48.0,42.0,-100.00,North,8,0.0,0.0,80,0.00,,,0.00,36.000000,,2013-08-03 14:52:00,
2013-08-03 09:32:00,56.0,45.0,-100.00,SW,222,0.0,3.0,67,0.00,,,0.00,319.000000,,2013-08-03 15:32:00,
2013-08-03 09:43:00,56.0,45.0,-100.00,SW,222,0.0,3.0,67,0.00,,,0.00,319.000000,,2013-08-03 15:43:00,
2013-08-03 09:53:00,56.0,45.0,-100.00,SW,222,0.0,3.0,67,0.00,,,0.00,319.000000,,2013-08-03 15:53:00,
2013-08-03 10:33:00,58.0,46.0,-100.00,WNW,288,1.0,0.0,64,0.00,,,0.00,574.000000,,2013-08-03 16:33:00,
2013-08-03 10:43:00,58.0,46.0,-100.00,WNW,288,1.0,0.0,64,0.00,,,0.00,574.000000,,2013-08-03 16:43:00,
2013-08-03 10:53:00,58.0,46.0,-100.00,WNW,288,1.0,0.0,64,0.00,,,0.00,574.000000,,2013-08-03 16:53:00,
2013-08-03 11:22:00,61.0,47.0,-100.00,West,280,1.0,6.0,61,0.00,,,0.00,747.000000,,2013-08-03 17:22:00,
2013-08-03 11:32:00,61.0,47.0,-100.00,West,280,1.0,6.0,61,0.00,,,0.00,747.000000,,2013-08-03 17:32:00,
2013-08-03 11:43:00,61.0,47.0,-100.00,West,280,1.0,6.0,61,0.00,,,0.00,747.000000,,2013-08-03 17:43:00,
2013-08-03 11:52:00,61.0,47.0,-100.00,West,280,1.0,6.0,61,0.00,,,0.00,747.000000,,2013-08-03 17:52:00,
2013-08-03 12:43:00,66.0,48.0,-100.00,WSW,252,4.0,8.0,52,0.00,,,0.00,975.000000,,2013-08-03 18:43:00,
2013-08-03 12:53:00,66.0,48.0,-100.00,WSW,252,4.0,8.0,52,0.00,,,0.00,975.000000,,2013-08-03 18:53:00,
2013-08-03 13:32:00,70.0,45.0,-100.00,West,281,3.0,8.0,41,0.00,,,0.00,1135.000000,,2013-08-03 19:32:00,
2013-08-03 13:43:00,70.0,45.0,-100.00,West,281,3.0,8.0,41,0.00,,,0.00,1135.000000,,2013-08-03 19:43:00,
2013-08-03 13:52:00,70.0,45.0,-100.00,West,281,3.0,8.0,41,0.00,,,0.00,1135.000000,,2013-08-03 19:52:00,
2013-08-03 14:42:00,69.0,46.0,-100.00,NNW,329,5.0,9.0,43,0.00,,,0.00,985.000000,,2013-08-03 20:42:00,
2013-08-03 14:52:00,69.0,46.0,-100.00,NNW,329,5.0,9.0,43,0.00,,,0.00,985.000000,,2013-08-03 20:52:00,
2013-08-03 15:22:00,69.0,39.0,-100.00,NNW,340,5.0,11.0,33,0.00,,,0.00,789.000000,,2013-08-03 21:22:00,
2013-08-03 15:32:00,69.0,39.0,-100.00,NNW,340,5.0,11.0,33,0.00,,,0.00,789.000000,,2013-08-03 21:32:00,
2013-08-03 15:42:00,69.0,39.0,-100.00,NNW,340,5.0,11.0,33,0.00,,,0.00,789.000000,,2013-08-03 21:42:00,
2013-08-03 15:52:00,69.0,39.0,-100.00,NNW,340,5.0,11.0,33,0.00,,,0.00,789.000000,,2013-08-03 21:52:00,
2013-08-03 16:22:00,73.0,39.0,-100.00,West,275,3.0,11.0,29,0.00,,,0.00,762.000000,,2013-08-03 22:22:00,
2013-08-03 16:33:00,73.0,39.0,-100.00,West,275,3.0,11.0,29,0.00,,,0.00,762.000000,,2013-08-03 22:33:00,
2013-08-03 16:42:00,73.0,39.0,-100.00,West,275,3.0,11.0,29,0.00,,,0.00,762.000000,,2013-08-03 22:42:00,
2013-08-03 16:52:00,73.0,39.0,-100.00,West,275,3.0,11.0,29,0.00,,,0.00,762.000000,,2013-08-03 22:52:00,
2013-08-03 17:22:00,74.0,38.0,-100.00,West,274,4.0,11.0,27,0.00,,,0.00,675.000000,,2013-08-03 23:22:00,
2013-08-03 17:32:00,74.0,38.0,-100.00,West,274,4.0,11.0,27,0.00,,,0.00,675.000000,,2013-08-03 23:32:00,
2013-08-03 17:42:00,74.0,38.0,-100.00,West,274,4.0,11.0,27,0.00,,,0.00,675.000000,,2013-08-03 23:42:00,
2013-08-03 17:52:00,74.0,38.0,-100.00,West,274,4.0,11.0,27,0.00,,,0.00,675.000000,,2013-08-03 23:52:00,
2013-08-03 18:22:00,74.0,40.0,-100.00,East,87,4.0,10.0,29,0.00,,,0.00,750.000000,,2013-08-04 00:22:00,
2013-08-03 18:32:00,74.0,40.0,-100.00,East,87,4.0,10.0,29,0.00,,,0.00,750.000000,,2013-08-04 00:32:00,
2013-08-03 18:42:00,74.0,40.0,-100.00,East,87,4.0,10.0,29,0.00,,,0.00,750.000000,,2013-08-04 00:42:00,
2013-08-03 18:52:00,74.0,40.0,-100.00,East,87,4.0,10.0,29,0.00,,,0.00,750.000000,,2013-08-04 00:52:00,
2013-08-03 19:22:00,71.0,40.0,-100.00,NNW,329,4.0,13.0,32,0.00,,,0.00,455.000000,,2013-08-04 01:22:00,
2013-08-03 19:32:00,71.0,40.0,-100.00,NNW,329,4.0,13.0,32,0.00,,,0.00,455.000000,,2013-08-04 01:32:00,
2013-08-03 19:42:00,71.0,40.0,-100.00,NNW,329,4.0,13.0,32,0.00,,,0.00,455.000000,,2013-08-04 01:42:00,
2013-08-03 19:52:00,71.0,40.0,-100.00,NNW,329,4.0,13.0,32,0.00,,,0.00,455.000000,,2013-08-04 01:52:00,
2013-08-03 20:22:00,69.0,42.0,-100.00,NNW,345,2.0,11.0,37,0.00,,,0.00,263.000000,,2013-08-04 02:22:00,
2013-08-03 20:32:00,69.0,42.0,-100.00,NNW,345,2.0,11.0,37,0.00,,,0.00,263.000000,,2013-08-04 02:32:00,
2013-08-03 20:42:00,69.0,42.0,-100.00,NNW,345,2.0,11.0,37,0.00,,,0.00,263.000000,,2013-08-04 02:42:00,
2013-08-03 20:52:00,69.0,42.0,-100.00,NNW,345,2.0,11.0,37,0.00,,,0.00,263.000000,,2013-08-04 02:52:00,
2013-08-03 21:22:00,64.0,43.0,-100.00,North,356,1.0,8.0,46,0.00,,,0.00,75.000000,,2013-08-04 03:22:00,
2013-08-03 21:32:00,64.0,43.0,-100.00,North,356,1.0,8.0,46,0.00,,,0.00,75.000000,,2013-08-04 03:32:00,
2013-08-03 21:42:00,64.0,43.0,-100.00,North,356,1.0,8.0,46,0.00,,,0.00,75.000000,,2013-08-04 03:42:00,
2013-08-03 21:52:00,64.0,43.0,-100.00,North,356,1.0,8.0,46,0.00,,,0.00,75.000000,,2013-08-04 03:52:00,
2013-08-03 22:22:00,61.0,44.0,-100.00,East,86,0.0,7.0,53,0.00,,,0.00,3.000000,,2013-08-04 04:22:00,
2013-08-03 22:32:00,61.0,44.0,-100.00,East,86,0.0,7.0,53,0.00,,,0.00,3.000000,,2013-08-04 04:32:00,
2013-08-03 22:42:00,61.0,44.0,-100.00,East,86,0.0,7.0,53,0.00,,,0.00,3.000000,,2013-08-04 04:42:00,
2013-08-03 22:52:00,61.0,44.0,-100.00,East,86,0.0,7.0,53,0.00,,,0.00,3.000000,,2013-08-04 04:52:00,
2013-08-03 23:22:00,58.0,41.0,-100.00,ENE,65,0.0,3.0,53,0.00,,,0.00,0.000000,,2013-08-04 05:22:00,
2013-08-03 23:32:00,58.0,41.0,-100.00,ENE,65,0.0,3.0,53,0.00,,,0.00,0.000000,,2013-08-04 05:32:00,
2013-08-03 23:42:00,58.0,41.0,-100.00,ENE,65,0.0,3.0,53,0.00,,,0.00,0.000000,,2013-08-04 05:42:00,
2013-08-03 23:52:00,58.0,41.0,-100.00,ENE,65,0.0,3.0,53,0.00,,,0.00,0.000000,,2013-08-04 05:52:00,